ROMMA est une association bénévole à but non lucratif. Votre soutien est indispensable : ADHERER à ROMMA ou FAIRE un DON

Le Versoud - (38, Isère)

Vallée du Grésivaudan (220 m)   Longitude: 05° 51' 44" E   Latitude: 45° 13' 06" N Station partenaire n°6
 

Détail journalier du     <<     >>

Température Precipitation Humidité Pression Vent Dir Rafale Dir. rafale Ensol.
Heure (°C) (mm) (%) (hPa) (km/h) (km/h) (min)
01:00 7.4076102400---0
02:00 6.6079102400---0
03:00 5.9082102400---0
04:00 5.0085102400---0
05:00 4.3086102400---0
06:00 4.1086102500---0
07:00 3.9087102500---0
08:00 3.9087102500---0
09:00 7.7074102500---25
10:00 12.1056102500---60
11:00 14.0048102400---60
12:00 17.3040102300---60
13:00 18.6039102203SO60
14:00 19.6032102106SO60
15:00 20.90331020010OSO60
16:00 21.802910201NNO13NO60
17:00 21.90311019013N60
18:00 21.1032101908NNE60
19:00 17.60431020010N30
20:00 14.9050102106NNE0
21:00 12.8056102100---0
22:00 11.7059102100---0
23:00 9.8067102100---0
minuit 8.9070102200---0

Graphique du 24-03-2019

 

Serveur OMMA